Weather History for North Las Vegas, NV

Change the Weather History Date:

Wednesday, February 27, 2013

  Actual Average Record
Temperature  
Mean Temperature 46 °F -  
Max Temperature 57 °F 62 °F 81 °F (1957)
Min Temperature 35 °F 43 °F 17 °F (1956)
Degree Days  
Heating Degree Days 19    
Moisture  
Dew Point 6 °F    
Average Humidity 21    
Maximum Humidity 37    
Minimum Humidity 9    
Precipitation  
Precipitation 0.00 in - - ()
Sea Level Pressure  
Sea Level Pressure 30.39 in    
Wind  
Wind Speed 5 mph (NNW)    
Max Wind Speed 14 mph    
Max Gust Speed 16 mph    
Visibility 10 miles    
Events      
Averages and records for this station are not official NWS values.
T = Trace of Precipitation, MM = Missing Value Source: NWS Daily Summary

Daily Weather History Graph

Daily Weather History Graph

Search for Another Location

Airport:

Trip Planner

Search our weather history database for the weather conditions in past years. The results will help you decide how hot, cold, wet, or windy it might be!

Date:

Astronomy

Feb. 27, 2013 Rise Set
Actual Time 6:13 AM PST 5:34 PM PST
Civil Twilight 5:47 AM PST 5:59 PM PST
Nautical Twilight 5:17 AM PST 6:29 PM PST
Astronomical Twilight 4:47 AM PST 6:59 PM PST
Moon 7:53 PM PST (2/27) 6:56 AM PST (2/27)
Length of Visible Light 12h 12m
Length of Day
11h 20m
Waning Gibbous, 96% of the Moon is Illuminated
Feb 27
Waning Gibbous
Mar 4
Last Quarter
Mar 11
New
Mar 19
First Quarter
Mar 27
Full

Hourly Weather History & Observations

Time (PST) Temp. Windchill Dew Point Humidity Pressure Visibility Wind Dir Wind Speed Gust Speed Precip Events Conditions
12:53 AM 41.0 °F - 10.0 °F 28% 30.34 in 10.0 mi Calm Calm - N/A   Clear
1:53 AM 37.9 °F 35.5 °F 12.0 °F 35% 30.35 in 10.0 mi NNW 3.5 mph - N/A   Clear
2:53 AM 37.9 °F 35.5 °F 10.9 °F 33% 30.34 in 10.0 mi West 3.5 mph - N/A   Clear
3:53 AM 37.0 °F 32.4 °F 12.0 °F 36% 30.36 in 10.0 mi NW 5.8 mph - N/A   Clear
4:53 AM 35.1 °F 31.0 °F 10.9 °F 37% 30.38 in 10.0 mi NNW 4.6 mph - N/A   Clear
5:53 AM 36.0 °F - 10.0 °F 34% 30.41 in 10.0 mi Calm Calm - N/A   Clear
6:53 AM 35.6 °F 29.2 °F 10.4 °F 35% 30.35 in 10.0 mi North 8.1 mph - N/A   Clear
7:53 AM 43.0 °F 36.4 °F 10.0 °F 26% 30.44 in 10.0 mi North 12.7 mph - N/A   Clear
8:53 AM 46.9 °F - 9.0 °F 21% 30.45 in 10.0 mi North 13.8 mph - N/A   Clear
9:53 AM 48.9 °F - 7.0 °F 18% 30.45 in 10.0 mi NW 8.1 mph 16.1 mph N/A   Clear
10:53 AM 52.0 °F - 6.1 °F 16% 30.43 in 10.0 mi NE 8.1 mph - N/A   Clear
11:53 AM 52.0 °F - 6.1 °F 16% 30.41 in 10.0 mi Variable 4.6 mph - N/A   Clear
12:53 PM 54.0 °F - 5.0 °F 14% 30.39 in 10.0 mi SE 5.8 mph - N/A   Clear
1:53 PM 55.9 °F - 3.9 °F 12% 30.37 in 10.0 mi ESE 4.6 mph - N/A   Clear
2:53 PM 57.0 °F - 1.9 °F 11% 30.35 in 10.0 mi Variable 6.9 mph - N/A   Clear
3:53 PM 57.9 °F - -2.0 °F 9% 30.34 in 10.0 mi East 8.1 mph - N/A   Clear
4:53 PM 57.0 °F - -2.0 °F 9% 30.35 in 10.0 mi ESE 6.9 mph - N/A   Clear
5:53 PM 54.0 °F - -0.9 °F 11% 30.36 in 10.0 mi SSE 6.9 mph - N/A   Clear
6:53 PM 54.0 °F - -0.9 °F 11% 30.38 in 10.0 mi Calm Calm - N/A   Clear
7:53 PM 50.0 °F - 3.0 °F 15% 30.38 in 10.0 mi West 4.6 mph - N/A   Clear
8:53 PM 48.0 °F - 5.0 °F 17% 30.39 in 10.0 mi WNW 3.5 mph - N/A   Clear
9:53 PM 44.1 °F 42.5 °F 5.0 °F 20% 30.41 in 10.0 mi West 3.5 mph - N/A   Clear
10:53 PM 42.1 °F 40.2 °F 7.0 °F 24% 30.42 in 10.0 mi NNW 3.5 mph - N/A   Clear
11:53 PM 43.0 °F 39.5 °F 5.0 °F 21% 30.42 in 10.0 mi NW 5.8 mph - N/A   Clear